Location: Ferchesar
(52.6477°N, 12.4298°E)
Time: 19:53:23
(UTC+01:00)

BUGSAT 1 - Pass Details

Date: 24 October 2021
Orbit: 558 x 601 km, 98.1° (Epoch: 28 November)

Event Time Altitude Azimuth Distance (km) Brightness Sun altitude
Rises 05:31:39 0° 22° (NNE) 2,759 ? -21.9°
Reaches altitude 10° 05:34:01 10° 34° (NE) 1,859 ? -21.5°
Maximum altitude 05:37:33 29° 96° (E) 1,040 ? -21.0°
Drops below altitude 10° 05:41:05 10° 158° (SSE) 1,855 ? -20.5°
Sets 05:43:26 0° 169° (S) 2,751 ? -20.1°
